Wind_Speed
4 10 15 19 23 28 27 23 22 22 23 24 26 27 25 19 14 10 4 2 7 16 18 20 27 31 29 21 23 23 25 31 31 34 29 29 24 18 25 26 29 21 18 18 22 24 23 21 23
2 6 13 17 20 26 26 26 23 24 23 24 26 27 27 24 15 13 9 2 8 17 22 23 32 36 30 29 22 29 24 30 25 28 33 32 30 27 28 24 26 23 17 21 22 21 23 25 21
4 2 10 13 18 22 25 26 24 24 24 24 26 28 30 27 20 13 10 6 4 18 24 26 29 35 34 28 21 27 23 22 30 27 35 34 32 27 27 28 26 25 20 23 27 28 26 28 29
3 2 5 9 16 18 24 27 26 24 25 25 27 30 31 29 26 18 14 11 5 13 25 26 27 30 35 28 25 24 30 23 29 37 31 30 30 31 30 27 30 28 27 30 34 35 32 25 24
5 1 3 7 11 16 20 22 27 24 26 25 28 31 33 32 26 18 18 17 15 9 19 29 27 27 31 35 27 26 33 29 29 37 38 37 31 29 30 33 31 32 36 32 31 26 22 17 5
8 1 4 5 8 13 15 22 25 25 24 26 28 31 32 34 25 18 20 20 20 16 11 22 27 26 30 33 30 30 32 29 32 30 33 33 35 35 35 34 36 36 32 28 25 19 9 1 3
7 8 3 2 5 12 12 19 22 25 23 26 26 28 29 33 29 16 20 22 23 21 16 14 16 22 27 26 28 29 34 36 41 40 36 34 31 37 38 35 31 27 25 19 15 7 5 2 3
6 10 6 3 3 7 10 16 19 24 22 24 24 25 27 32 30 19 19 22 24 23 21 18 14 10 9 10 13 16 18 23 36 38 39 38 37 35 33 32 26 18 14 10 10 10 6 8 12
10 11 8 7 3 2 7 14 17 21 21 22 23 23 28 32 31 24 25 29 30 30 27 25 25 22 17 11 9 14 16 19 23 28 30 29 29 27 25 23 16 13 15 14 13 11 15 15 14
14 18 14 11 4 3 4 9 14 17 20 20 22 22 27 31 31 22 23 26 26 25 22 22 19 16 14 14 15 14 11 11 18 22 23 23 22 19 15 16 17 18 16 15 15 14 17 16 14
17 20 19 14 6 1 4 3 12 13 17 20 20 24 23 27 28 26 24 26 29 27 26 22 17 13 12 12 13 13 10 8 10 14 17 17 17 17 21 19 18 17 18 16 15 18 19 17 15
23 22 22 17 9 6 2 1 6 9 14 17 19 22 23 26 26 28 28 29 27 28 27 26 25 25 25 25 26 28 23 19 15 14 15 16 16 20 23 23 23 18 20 19 23 20 19 18 23
29 25 23 22 11 6 3 2 3 6 11 13 18 21 24 25 26 27 30 32 29 23 25 28 26 25 25 27 26 27 27 27 28 22 22 23 25 27 28 25 23 23 24 24 18 20 19 25 26
33 31 28 23 14 9 10 5 5 5 8 10 14 22 29 30 30 28 28 26 27 27 25 25 25 24 22 22 23 22 24 27 31 32 31 31 30 31 29 26 25 26 24 20 23 23 24 31 27
37 36 34 29 20 16 13 10 11 6 6 10 9 15 23 25 28 30 32 38 32 28 26 25 21 18 21 19 18 19 19 23 26 29 33 32 31 30 26 25 25 24 19 23 20 26 28 30 32
41 40 39 34 26 26 18 17 13 10 7 9 6 9 17 22 24 29 27 35 39 36 32 28 24 19 19 21 18 18 19 20 24 23 22 26 28 29 27 27 27 25 20 22 28 29 32 30 38
47 45 44 43 36 33 23 21 18 15 10 8 6 8 10 14 15 21 25 31 36 39 38 33 33 29 26 25 22 22 19 19 18 15 17 18 22 21 24 25 26 29 32 31 29 36 33 29 35
52 50 47 44 42 38 33 26 24 16 13 10 11 8 8 9 9 9 18 24 29 36 38 40 40 41 32 27 27 28 26 19 17 18 21 20 25 27 30 29 29 29 28 30 39 37 31 29 31
54 56 52 48 45 42 38 33 28 26 19 16 14 11 9 7 7 5 11 14 20 28 33 35 37 39 38 37 26 25 25 28 23 18 19 23 23 23 25 27 27 29 34 42 41 34 29 31 26
50 58 58 54 53 45 45 41 36 33 28 21 19 16 9 10 10 8 10 11 12 19 26 29 31 37 38 38 32 24 22 25 26 27 20 22 23 24 25 29 34 35 40 43 37 35 37 31 27
46 53 60 59 57 54 49 47 42 36 32 25 24 21 15 12 14 13 10 13 10 11 17 24 26 24 26 28 34 33 25 21 24 29 24 21 24 27 32 33 34 40 42 38 34 33 35 34 23
49 50 57 64 63 59 55 51 51 41 39 29 29 26 20 15 15 14 10 11 10 8 9 11 20 21 21 25 26 30 33 29 26 29 26 24 28 29 34 37 43 42 39 34 29 28 27 24 21
48 54 54 63 68 66 62 56 55 48 46 37 35 28 25 22 18 16 13 11 9 9 8 6 11 17 20 21 22 27 32 38 30 31 29 27 31 41 42 44 43 39 34 28 23 25 24 19 19
46 52 57 59 68 70 66 62 60 55 51 41 37 34 31 26 23 19 16 14 13 10 11 11 12 13 19 19 14 18 22 24 31 32 30 29 33 34 39 40 34 28 26 23 21 22 22 14 11
50 54 56 66 65 76 71 68 64 61 56 47 46 40 35 31 26 25 20 13 14 13 12 14 14 13 15 15 13 13 15 20 23 28 31 29 28 28 27 25 23 21 21 20 17 17 12 8 7
44 52 60 66 74 71 77 78 68 66 64 58 56 48 42 34 30 31 25 21 18 17 15 15 19 18 17 16 17 17 16 17 19 20 23 24 23 20 20 19 17 18 16 14 12 9 6 6 6
42 47 55 68 72 74 81 84 76 68 65 64 63 57 48 41 37 35 31 29 22 20 19 19 18 21 19 17 16 16 16 16 17 18 15 18 21 19 17 17 16 18 15 12 7 4 7 9 10
42 44 46 54 72 78 81 88 81 75 68 67 65 63 55 46 43 37 38 35 29 23 23 25 21 20 18 18 16 13 13 15 16 17 16 13 14 13 11 14 16 17 14 12 13 15 16 16 15
38 38 41 43 63 80 86 90 87 82 75 71 69 63 60 52 52 43 42 42 35 28 25 26 27 23 22 19 18 13 9 8 13 14 14 14 13 11 11 9 10 12 11 10 10 11 12 10 10
37 38 34 36 59 81 86 85 92 85 80 79 73 70 61 55 51 47 44 42 40 38 31 29 29 29 27 23 20 17 14 13 11 16 14 13 13 13 13 12 9 5 6 9 9 11 8 7 6
Wind_Direction
5 19 23 29 27 33 38 45 45 43 39 38 32 28 27 29 28 15 346 332 178 175 184 179 173 170 160 193 205 206 219 195 211 217 221 222 219 242 236 238 242 252 264 265 285 298 306 307 309
319 17 37 32 31 34 37 41 47 44 41 38 35 29 23 23 26 29 21 325 208 185 183 186 177 173 174 178 213 206 201 206 213 217 224 220 220 232 245 245 242 252 255 274 285 296 294 294 292
130 53 38 32 33 29 41 39 42 44 43 41 34 31 22 19 24 28 37 40 161 192 186 189 184 186 181 182 191 217 222 219 210 220 227 223 221 238 247 253 248 257 263 279 289 292 289 289 292
138 165 28 31 36 14 40 34 35 42 39 43 35 30 22 21 27 31 49 60 117 181 191 190 191 191 192 189 196 216 221 223 217 217 217 221 231 250 254 255 248 250 271 280 284 286 284 287 296
176 215 355 15 42 30 35 38 34 34 36 41 39 30 24 21 33 32 47 62 76 131 190 193 195 199 198 197 203 205 220 218 224 223 227 229 243 241 250 249 248 260 274 275 277 280 280 297 296
179 239 312 10 16 26 34 38 33 28 32 39 41 33 26 24 38 50 52 68 76 82 130 191 198 201 204 206 213 220 219 211 215 218 219 232 243 242 247 257 260 262 267 265 261 270 275 234 314
219 206 219 358 359 10 35 43 32 29 26 36 43 34 26 24 32 35 65 67 80 83 94 133 175 195 202 212 218 223 224 226 217 220 226 232 244 246 248 249 252 249 251 254 261 219 149 163 151
181 166 183 163 147 358 31 51 34 35 24 29 44 35 26 30 33 43 69 73 79 82 84 97 115 148 181 201 214 217 223 226 227 234 239 244 243 242 245 247 249 238 224 193 169 152 172 151 138
204 178 199 215 181 18 30 43 37 34 25 24 41 39 31 37 45 63 78 82 82 84 84 91 97 97 104 126 184 214 220 224 231 233 233 236 236 236 238 236 216 182 172 163 153 152 151 141 134
205 201 205 229 245 46 46 44 48 38 32 24 35 37 33 39 52 63 73 81 84 90 93 96 95 89 100 107 99 103 134 195 216 218 221 222 224 217 190 172 163 164 163 161 154 151 146 137 130
202 209 208 215 168 88 90 10 65 43 39 27 34 36 33 40 52 62 72 78 82 78 84 91 93 86 80 92 96 108 122 153 182 196 202 207 213 202 175 166 168 167 167 153 161 150 137 131 132
208 207 207 212 165 181 107 17 60 45 43 37 34 40 48 53 58 65 71 79 78 83 81 77 80 89 87 94 94 91 100 109 123 157 177 172 168 173 164 165 166 165 157 159 140 136 134 133 124
211 207 211 207 184 192 198 202 279 65 45 41 42 50 62 61 65 67 69 65 66 76 84 79 79 90 87 87 94 90 82 86 89 104 124 131 136 143 152 153 153 151 151 142 130 136 134 130 126
212 211 204 206 188 190 203 192 232 115 71 52 49 70 75 71 65 65 70 60 64 64 79 86 83 83 89 89 90 89 89 83 88 90 103 111 121 127 133 140 143 135 134 137 133 132 135 134 113
213 214 201 208 188 206 201 194 231 160 105 69 64 73 81 74 66 64 76 70 71 69 70 72 80 88 85 93 94 91 94 95 93 97 105 106 112 118 124 128 129 136 136 130 128 135 135 127 116
215 215 208 206 202 216 210 205 219 199 140 107 78 81 86 79 69 74 81 73 75 79 75 73 70 78 75 72 91 100 103 100 98 96 110 114 115 120 123 121 123 127 128 127 132 139 130 123 124
216 216 217 210 210 220 212 209 203 207 177 138 122 114 99 94 81 70 78 78 78 77 76 74 68 70 73 72 79 82 99 113 116 103 113 124 130 132 135 135 134 131 132 133 138 136 126 122 127
217 217 217 221 212 211 214 211 198 202 190 177 147 133 127 113 99 68 68 83 83 80 77 76 74 71 71 79 77 76 81 95 116 120 123 120 128 125 129 136 135 136 140 141 140 133 131 131 127
219 217 218 215 216 206 213 215 206 186 204 195 173 146 150 139 136 102 77 78 87 86 78 77 74 73 71 70 79 79 71 74 84 113 130 130 135 136 142 144 141 143 143 142 135 134 129 129 124
226 220 217 217 218 202 211 214 210 196 194 203 182 166 148 177 141 142 93 102 99 91 85 74 75 72 72 70 67 74 68 65 74 78 114 132 139 141 142 142 141 140 139 134 137 130 131 128 122
235 227 221 217 217 210 207 209 214 201 194 196 191 181 167 188 167 150 134 113 112 107 93 80 80 76 68 65 69 68 63 64 68 71 90 120 132 140 137 139 141 137 135 137 134 135 139 138 125
231 234 227 221 215 217 203 207 209 201 196 195 190 184 173 180 188 169 162 134 121 125 109 92 86 83 79 67 73 74 73 71 72 73 86 112 128 136 139 137 138 136 136 136 131 138 150 137 113
235 231 235 227 218 216 205 204 204 198 200 190 195 187 183 182 194 192 182 170 153 142 140 110 102 95 96 88 80 81 78 75 78 80 86 109 126 129 130 133 132 135 136 132 124 130 145 135 118
244 235 229 232 226 216 209 202 202 196 198 194 203 197 181 186 194 194 192 181 172 163 149 132 122 115 112 113 90 94 86 79 81 87 94 108 119 122 127 131 131 126 127 124 115 126 126 118 122
251 242 234 227 228 222 210 202 206 198 191 198 204 199 197 183 193 204 196 195 190 174 164 142 138 134 131 119 127 101 92 89 91 89 98 105 113 117 120 121 124 124 120 122 121 137 128 127 128
251 247 237 231 224 223 211 211 203 205 197 204 205 205 201 183 197 209 207 212 202 184 174 163 148 137 138 131 126 128 121 112 108 100 101 105 110 119 119 123 130 132 134 136 138 140 111 118 121
266 263 249 236 227 220 215 211 206 205 205 205 206 201 204 194 201 208 202 212 216 190 183 177 163 157 142 136 132 133 137 136 128 123 119 112 113 111 112 115 138 137 137 129 127 118 113 114 104
272 268 263 241 227 220 216 211 208 202 203 204 201 200 202 203 207 203 201 212 219 199 193 187 183 176 166 146 141 135 129 147 149 143 131 131 124 124 120 121 117 121 134 137 109 100 96 98 102
272 275 273 255 222 216 215 211 209 200 203 206 207 202 209 207 211 205 208 208 217 211 197 195 198 196 189 183 171 169 162 148 159 167 160 150 149 145 141 126 108 112 100 105 117 97 84 71 65
274 276 274 260 221 210 210 211 208 203 202 205 208 206 203 209 213 210 211 210 211 215 209 203 203 202 213 203 200 196 207 228 203 182 186 179 176 169 173 176 172 157 114 110 131 116 96 75 52
Height
10988 10987 10985 10982 10978 10973 10969 10964 10959 10954 10949 10945 10941 10937 10933 10929 10926 10924 10922 10920 10920 10920 10923 10926 10929 10931 10938 10943 10944 10946 10945 10950 10954 10956 10960 10963 10965 10969 10970 10972 10973 10975 10976 10976 10975 10973 10971 10969 10968
10988 10987 10985 10983 10980 10976 10971 10967 10962 10957 10951 10946 10942 10938 10934 10929 10925 10922 10919 10918 10917 10917 10919 10924 10928 10930 10932 10936 10940 10943 10946 10950 10952 10955 10958 10961 10964 10966 10968 10970 10972 10973 10972 10973 10971 10971 10969 10967 10965
10988 10987 10986 10984 10981 10978 10975 10970 10965 10960 10955 10948 10944 10938 10934 10929 10923 10920 10918 10915 10914 10913 10915 10920 10926 10928 10931 10935 10937 10941 10945 10948 10950 10952 10955 10958 10961 10964 10966 10969 10970 10969 10969 10969 10968 10967 10966 10964 10962
10988 10987 10987 10986 10984 10982 10978 10974 10969 10963 10958 10951 10946 10939 10935 10929 10921 10919 10917 10913 10911 10910 10912 10917 10923 10928 10931 10933 10937 10940 10942 10945 10947 10950 10953 10956 10959 10961 10963 10964 10967 10967 10966 10967 10966 10965 10963 10961 10959
10988 10987 10987 10986 10985 10983 10980 10977 10971 10967 10961 10955 10948 10941 10936 10931 10923 10921 10917 10912 10910 10909 10911 10914 10920 10925 10929 10932 10935 10938 10940 10942 10945 10948 10950 10953 10955 10958 10959 10961 10963 10963 10963 10964 10963 10962 10961 10959 10958
10988 10987 10987 10987 10986 10984 10982 10979 10975 10971 10965 10958 10950 10944 10939 10933 10927 10924 10919 10914 10911 10910 10912 10915 10920 10924 10927 10930 10934 10936 10938 10940 10943 10944 10947 10950 10952 10955 10956 10959 10959 10960 10960 10960 10959 10959 10959 10959 10958
10986 10988 10988 10988 10986 10984 10983 10980 10977 10974 10968 10961 10954 10950 10945 10937 10930 10927 10923 10918 10915 10914 10915 10916 10920 10923 10926 10930 10932 10931 10934 10933 10936 10940 10942 10945 10948 10950 10951 10954 10955 10956 10955 10955 10957 10958 10959 10959 10960
10985 10987 10988 10988 10987 10985 10984 10982 10979 10974 10972 10966 10959 10956 10950 10942 10935 10931 10927 10923 10920 10918 10919 10920 10922 10924 10926 10926 10926 10927 10928 10930 10932 10937 10938 10940 10944 10945 10947 10948 10950 10952 10952 10954 10956 10958 10958 10960 10961
10984 10986 10988 10988 10987 10986 10984 10984 10980 10977 10975 10970 10964 10961 10956 10948 10942 10937 10932 10928 10926 10925 10925 10925 10926 10926 10925 10923 10923 10922 10923 10926 10927 10931 10933 10935 10938 10940 10943 10945 10948 10950 10952 10954 10956 10957 10959 10961 10961
10982 10984 10986 10987 10988 10987 10986 10985 10983 10981 10979 10975 10969 10965 10961 10955 10947 10943 10938 10934 10932 10930 10929 10929 10929 10929 10927 10926 10924 10923 10923 10923 10923 10926 10929 10931 10934 10937 10940 10943 10947 10949 10953 10955 10957 10959 10960 10962 10962
10980 10982 10984 10986 10987 10987 10986 10987 10985 10984 10980 10977 10973 10969 10965 10960 10953 10947 10943 10939 10937 10935 10932 10931 10930 10930 10928 10927 10926 10924 10923 10922 10922 10923 10925 10928 10931 10935 10939 10943 10946 10950 10953 10956 10959 10961 10962 10963 10964
10976 10980 10981 10984 10985 10986 10987 10986 10987 10986 10983 10980 10978 10975 10969 10964 10958 10952 10949 10945 10941 10939 10936 10934 10931 10931 10931 10929 10928 10927 10925 10922 10921 10921 10923 10926 10929 10933 10939 10943 10946 10950 10955 10958 10961 10963 10964 10965 10967
10973 10977 10979 10982 10984 10985 10986 10987 10987 10987 10986 10984 10982 10979 10974 10969 10963 10958 10954 10951 10947 10944 10941 10939 10937 10935 10934 10933 10933 10931 10929 10927 10924 10922 10922 10925 10929 10934 10939 10944 10948 10952 10956 10960 10963 10965 10966 10969 10970
10968 10972 10976 10979 10982 10984 10986 10987 10988 10989 10988 10987 10986 10984 10978 10974 10969 10964 10960 10956 10952 10950 10947 10944 10943 10942 10940 10939 10937 10936 10935 10933 10931 10929 10929 10931 10934 10938 10943 10948 10952 10955 10959 10963 10965 10968 10970 10972 10974
10963 10967 10971 10975 10978 10982 10985 10986 10987 10989 10989 10989 10989 10987 10983 10979 10975 10971 10968 10963 10957 10954 10952 10949 10947 10946 10945 10943 10942 10941 10939 10938 10937 10937 10938 10940 10942 10945 10950 10953 10956 10959 10961 10965 10968 10971 10973 10976 10978
10957 10961 10966 10970 10974 10978 10982 10984 10986 10988 10989 10989 10990 10989 10987 10984 10981 10977 10973 10969 10964 10961 10958 10956 10952 10950 10949 10948 10946 10945 10944 10943 10943 10944 10945 10945 10947 10950 10954 10957 10959 10962 10964 10967 10971 10973 10977 10980 10981
10949 10954 10959 10964 10969 10973 10978 10981 10984 10987 10988 10989 10990 10990 10989 10988 10985 10983 10979 10976 10971 10967 10964 10961 10959 10956 10955 10953 10951 10950 10948 10948 10949 10949 10949 10950 10952 10953 10956 10959 10961 10964 10967 10971 10974 10978 10982 10984 10985
10940 10946 10951 10956 10962 10968 10974 10977 10982 10984 10987 10989 10988 10990 10989 10990 10988 10986 10985 10982 10978 10974 10970 10968 10966 10963 10961 10959 10957 10955 10954 10953 10952 10953 10952 10954 10955 10957 10959 10961 10965 10968 10970 10973 10977 10982 10985 10987 10988
10931 10936 10942 10948 10954 10961 10966 10971 10977 10980 10983 10986 10987 10988 10989 10991 10989 10988 10988 10987 10985 10981 10977 10974 10973 10971 10968 10967 10964 10962 10960 10959 10957 10956 10956 10957 10960 10962 10962 10965 10968 10971 10971 10975 10981 10986 10989 10991 10993
10921 10927 10934 10941 10947 10955 10961 10966 10970 10975 10978 10982 10985 10986 10988 10990 10990 10988 10989 10990 10990 10987 10983 10980 10979 10977 10976 10974 10971 10968 10966 10964 10963 10960 10959 10959 10961 10963 10965 10968 10971 10974 10977 10983 10986 10990 10993 10996 10997
10912 10918 10925 10932 10938 10946 10951 10958 10963 10970 10974 10976 10981 10983 10985 10988 10989 10988 10989 10991 10993 10992 10989 10986 10984 10983 10982 10981 10978 10975 10972 10971 10967 10965 10963 10964 10966 10966 10970 10973 10975 10980 10985 10989 10992 10994 10996 10999 11001
10903 10909 10913 10918 10927 10934 10942 10950 10956 10962 10968 10969 10975 10979 10982 10985 10988 10989 10989 10990 10992 10994 10992 10991 10989 10988 10988 10987 10984 10984 10980 10978 10975 10973 10971 10971 10971 10973 10974 10978 10982 10986 10991 10995 10998 11000 11001 11002 11005
10890 10897 10902 10907 10914 10924 10934 10940 10947 10953 10960 10964 10970 10974 10978 10981 10984 10986 10989 10990 10991 10993 10993 10993 10992 10992 10991 10991 10992 10990 10988 10987 10984 10982 10981 10980 10979 10981 10983 10986 10990 10993 10997 11001 11002 11004 11006 11007 11008
10877 10883 10889 10894 10901 10912 10922 10931 10937 10943 10952 10957 10964 10970 10973 10978 10981 10984 10986 10988 10989 10993 10993 10994 10995 10995 10994 10994 10996 10995 10994 10994 10993 10991 10991 10992 10992 10992 10993 10996 10999 11002 11004 11006 11008 11008 11010 11011 11010
10861 10865 10872 10876 10886 10892 10910 10918 10925 10934 10941 10949 10957 10961 10969 10973 10977 10980 10984 10988 10988 10991 10992 10994 10996 10997 10998 10998 10999 10999 10998 10999 11000 10999 10999 11000 11001 11002 11003 11004 11005 11007 11008 11010 11011 11012 11012 11012 11012
10844 10847 10852 10858 10868 10879 10895 10900 10912 10922 10932 10941 10948 10956 10963 10967 10972 10976 10981 10985 10987 10989 10991 10993 10995 10998 10999 11000 11001 11001 11001 11003 11004 11005 11005 11005 11006 11008 11008 11007 11008 11010 11011 11012 11013 11014 11014 11014 11013
10829 10829 10832 10838 10850 10864 10875 10884 10900 10911 10921 10930 10939 10948 10953 10956 10963 10971 10977 10981 10985 10987 10989 10992 10994 10996 10999 11000 11002 11003 11004 11006 11007 11008 11009 11009 11008 11009 11010 11010 11010 11011 11012 11014 11016 11015 11015 11014 11014
10813 10813 10813 10816 10827 10842 10855 10871 10886 10899 10911 10920 10929 10938 10944 10949 10957 10964 10971 10975 10980 10984 10987 10989 10993 10995 10997 10998 11002 11004 11006 11007 11009 11010 11010 11012 11012 11012 11013 11012 11012 11013 11014 11015 11015 11015 11014 11015 11016
10798 10798 10796 10795 10804 10819 10836 10856 10869 10885 10899 10908 10918 10929 10937 10941 10947 10955 10962 10969 10975 10980 10983 10987 10989 10994 10996 10997 10999 11002 11005 11007 11009 11010 11011 11011 11012 11014 11014 11014 11015 11016 11016 11016 11015 11015 11016 11017 11017
10785 10784 10782 10781 10784 10798 10821 10845 10854 10875 10885 10896 10907 10918 10927 10935 10939 10946 10955 10963 10970 10974 10979 10982 10985 10989 10993 10995 10997 10999 11002 11005 11008 11009 11011 11010 11011 11013 11014 11015 11016 11017 11017 11017 11016 11014 11017 11018 11018